Regional Weather Roundup
Issued by NWS

Home | Current Version | Previous Version | Graphics & Text | Print | Product List | Glossary On
Versions: 1 2 3 4 5 6 7 8 9 10 11 12 13 14 15 16 17 18 19 20 21 22 23 24 25 26 27
000
ASUS43 KDMX 240307
RWRIA

WEATHER ROUNDUP FOR IOWA
NATIONAL WEATHER SERVICE DES MOINES IA
1000 PM CDT WED APR 23 2014

NOTE: "FAIR" INDICATES FEW OR NO CLOUDS BELOW 12,000 FEET WITH NO
SIGNIFICANT WEATHER AND/OR OBSTRUCTIONS TO VISIBILITY.

* - THESE STATIONS ARE NOT NWS STATIONS...THUS NOT UNDER NWS
QUALITY CONTROL.  THEY ALSO DO NOT REPORT WEATHER SUCH
AS PRECIPITATION OR FOG.

IAZ001>003-012>014-020>022-031>034-043>046-240400-
   NORTHWEST IOWA

CITY           SKY/WX    TMP DP  RH WIND       PRES   REMARKS
CARROLL *      CLOUDY    48  41  76 SE15      29.77F
CHEROKEE *     CLOUDY    48  39  71 E9        29.76R
DENISON *      LGT RAIN  50  43  76 SE12      29.75R
LE MARS *        N/A     48  43  81 SE10      29.73R
ORANGE CITY *  CLOUDY    46  39  76 SE13G23   29.71R
SHELDON *      CLOUDY    46  39  76 SE20G29   29.73R
SIOUX CITY     LGT RAIN  52  47  83 E8        29.70R
SPENCER        LGT RAIN  45  39  79 SE13      29.78R
STORM LAKE *   CLOUDY    45  43  93 SE15G22   29.73R
$$

IAZ055>058-069>071-079>083-090>094-240400-
   SOUTHWEST IOWA

CITY           SKY/WX    TMP DP  RH WIND       PRES   REMARKS
ATLANTIC *     CLOUDY    54  41  62 E17G24    29.70R
AUDUBON *      DRIZZLE   50  41  71 SE14      29.74S
CLARINDA *     CLEAR     61  41  48 SE12G20   29.71R
COUNCIL BLFS * CLEAR     54  46  76 E13       29.65F
CRESTON *      CLEAR     54  41  62 SE22G30   29.73R
HARLAN  *      CLOUDY    50  45  81 E7        29.75S
LAMONI         MOCLDY    56  38  50 SE13G22   29.75S
RED OAK *      CLOUDY    57  43  58 SE14      29.67R
SHENANDOAH *   CLEAR     63  43  48 SE20G26   29.65F
$$

IAZ047>049-059>061-072>074-084-240400-
   CENTRAL IOWA

CITY           SKY/WX    TMP DP  RH WIND       PRES   REMARKS
AMES           CLOUDY    47  39  74 SE17G24   29.80R
ANKENY *       CLOUDY    50  41  71 SE16G23   29.79R
CHARITON *     CLOUDY    54  37  54 SE20G28   29.78F
DES MOINES     CLOUDY    52  38  58 E14       29.79R
GRINNELL*      CLOUDY    46  37  71 SE21      29.81F
KNOXVILLE *    CLOUDY    52  37  58 SE22G30   29.77F
MARSHALLTOWN   CLOUDY    46  40  79 SE14G28   29.84F
NEWTON *       MOCLDY    48  39  71 SE21G28   29.81F
PELLA *        CLOUDY    50  39  66 SE17G28   29.81F
PERRY *        CLOUDY    50  37  62 SE18G25   29.77R
$$

IAZ004>006-015-016-023>025-035-036-240400-
   NORTH CENTRAL IOWA

CITY           SKY/WX    TMP DP  RH WIND       PRES   REMARKS
ALGONA *       MOCLDY    45  39  81 SE18G31   29.80S
CLARION *      MIX PCPN  45  39  81 SE26G36   29.80S
ESTHERVILLE    LGT RAIN  43  40  89 SE22      29.79F
FORT DODGE *   CLOUDY    45  39  81 SE9       29.81R
MASON CITY       N/A     44  37  76 SE20G31   29.85F
FOREST CITY *  CLOUDY    45  37  76 SE20G26   29.83R
IOWA FALLS *   LGT RAIN  45  39  81 E16G22    29.85R
$$

IAZ007>011-017>019-026>030-037>042-050>054-066-240400-
   NORTHEAST IOWA

CITY           SKY/WX    TMP DP  RH WIND       PRES   REMARKS
CEDAR RAPIDS   CLOUDY    46  39  76 E22G29    29.87F
CHARLES CITY * CLOUDY    45  37  76 SE21G26   29.88S
CLINTON *      CLOUDY    46  39  76 E16       30.00R
DECORAH *      CLOUDY    45  37  76 SE12G20   29.93F
DUBUQUE        CLOUDY    46  37  71 SE16      29.97R
MONTICELLO *   CLOUDY    46  39  76 SE12      29.95S
OELWEIN *      CLOUDY   N/A N/A N/A SE17G24   29.91F
WATERLOO       CLOUDY    46  38  73 SE17G28   29.86F
$$

IAZ064-065-067-068-078-240400-
   EAST CENTRAL IOWA

CITY           SKY/WX    TMP DP  RH WIND       PRES   REMARKS
DAVENPORT      CLOUDY    48  40  73 SE12      29.98S
IOWA CITY      CLOUDY    47  41  80 E10       29.93F
MT. PLEASANT * CLOUDY    50  36  57 E14G20    29.90F
MUSCATINE *    PTCLDY    50  37  62 E12       29.94R
QUAD CITIES    CLOUDY    48  40  73 SE7       29.98R
$$

IAZ062-063-075>077-085>089-095>099-240400-
   SOUTHEAST IOWA

CITY           SKY/WX    TMP DP  RH WIND       PRES   REMARKS
BURLINGTON     CLOUDY    53  34  48 SE20G28   29.90F
FAIRFIELD *    CLOUDY    48  37  66 E13       29.88S
FORT MADISON * CLEAR     54  34  47 E15       29.90S
KEOKUK *       CLEAR     55  30  38 SE15G23   29.89S
OSKALOOSA *      N/A     48  39  71 E15       29.86F
CENTERVILLE *  CLEAR     54  36  50 SE18G31   29.83S
OTTUMWA        MOCLDY    50  36  58 E15       29.86R
WASHINGTON *   MOCLDY    48  39  71 E14       29.92R
$$

ABBREVIATIONS USED IN REMARKS
   TC - TEMPERATURES IN CELSIUS
  WCI - WIND CHILL INDEX
   HX - HEAT INDEX
  VSB - VISIBILITY
$$




USA.gov is the U.S. government's official web portal to all federal, state and local government web resources and services.